Wind_Speed
43 44 43 43 43 42 41 40 41 41 41 39 36 36 37 37 36 36 34 33 33 35 36 36 36 35 33 30 28 26 28 32 36 36 35 33 32 32 33 34 34 35 36 37 36 36 35 34 34 34 34 34 34 33 32 32 31 31 32 32 31 31 32 33 32 32 34 35 34 35 35 33 33 33 33 32 31 29 28 29 29 29 28 28 28
41 42 43 41 41 41 41 41 41 42 42 41 39 37 37 38 38 38 37 35 35 37 39 39 37 36 34 32 31 30 29 29 30 32 32 31 30 32 33 33 34 35 37 37 38 38 38 37 36 36 36 36 36 36 35 34 34 33 33 33 33 32 32 33 32 32 33 35 36 35 35 34 34 35 35 35 33 31 30 30 30 30 30 28 28
39 40 41 42 41 40 40 40 40 41 41 41 39 38 38 38 38 38 39 38 37 37 39 40 39 37 35 33 33 33 32 31 29 29 30 31 31 33 34 34 34 35 37 38 39 40 40 40 39 39 39 39 39 39 39 38 37 36 36 35 35 34 34 34 33 33 32 34 36 36 36 35 36 36 36 36 36 33 32 32 32 32 32 31 29
38 38 39 41 40 39 38 38 39 40 40 40 39 39 38 38 38 39 39 39 38 37 39 40 39 37 35 34 33 34 34 35 34 33 33 33 34 35 36 36 35 36 37 38 40 41 42 42 42 41 42 42 42 42 42 42 41 40 40 39 38 37 37 37 37 36 35 34 35 37 38 38 38 38 38 38 38 36 34 34 34 33 33 33 32
37 37 37 39 40 39 39 39 39 39 39 39 40 40 39 38 38 39 40 40 39 39 39 40 39 38 35 34 34 35 35 37 38 38 38 37 37 38 38 37 37 37 38 40 41 42 43 44 44 44 44 45 45 45 45 45 44 44 43 43 43 42 41 41 41 40 39 37 36 37 39 40 40 41 41 41 40 39 37 35 36 36 36 36 36
35 36 37 38 39 40 40 41 41 40 40 39 40 40 40 39 38 39 39 40 40 39 39 40 40 39 38 36 36 36 37 39 40 41 41 41 41 41 40 39 39 39 40 42 43 44 45 46 46 46 46 46 46 46 46 46 47 47 47 47 47 46 46 45 45 44 43 41 39 39 40 42 42 42 44 45 44 43 40 38 37 38 40 40 38
36 36 36 37 38 39 41 41 41 41 41 41 41 41 41 40 39 39 40 40 41 40 40 40 41 41 40 39 39 38 39 40 42 43 43 44 44 44 43 41 40 40 41 43 44 46 47 47 47 48 48 48 48 47 47 48 49 50 50 50 50 50 49 49 49 48 47 46 44 43 43 44 45 44 44 46 47 46 44 43 40 40 42 42 41
36 36 37 37 37 38 39 40 41 41 41 42 42 42 42 41 40 40 41 42 42 41 40 40 41 42 41 40 39 40 40 40 41 42 42 43 44 45 45 43 41 41 42 43 44 46 48 49 48 48 49 49 49 49 49 49 51 52 53 53 53 52 52 52 52 52 51 50 49 48 47 47 48 47 46 46 46 46 47 47 45 43 44 44 43
34 35 36 37 37 37 38 38 39 39 40 42 42 43 43 43 42 40 41 41 41 40 40 40 40 41 41 40 39 40 42 40 39 40 40 41 43 44 44 43 42 42 43 43 44 45 48 49 49 48 49 49 50 50 50 51 52 54 54 54 54 55 55 55 55 54 54 53 54 53 52 50 50 50 49 49 47 46 47 49 49 47 47 47 45
33 34 34 35 36 36 37 37 37 37 39 41 43 43 44 44 44 42 41 40 40 39 39 40 41 41 42 41 40 41 43 42 39 39 39 40 40 42 42 42 42 43 44 44 43 44 45 47 48 49 49 50 50 51 51 52 54 54 55 56 56 56 57 58 57 57 57 56 56 57 56 55 54 53 52 52 51 50 49 50 50 50 51 50 48
33 34 35 35 35 36 36 36 36 36 38 40 43 44 45 44 45 44 43 41 40 38 38 39 40 42 43 43 42 42 42 41 40 40 39 39 39 40 41 42 43 44 44 43 43 42 43 44 46 48 49 50 51 51 51 53 54 55 55 55 56 57 58 59 59 59 59 59 59 59 59 59 58 57 56 54 54 53 52 52 52 52 52 52 52
33 34 35 36 37 37 37 37 37 37 37 39 42 45 46 45 44 44 44 43 41 39 38 38 39 41 43 44 45 44 43 41 41 42 41 40 40 41 43 44 45 45 45 44 44 44 44 44 46 47 49 50 51 52 52 53 54 55 55 55 56 57 58 58 59 60 61 61 61 61 61 62 62 60 58 57 56 57 57 56 55 55 55 55 54
33 33 35 37 38 39 39 39 39 39 39 39 41 44 46 46 45 44 43 42 41 40 39 39 39 40 42 44 46 47 46 44 43 44 45 44 43 44 44 45 46 48 47 46 46 46 46 47 48 49 50 50 50 51 52 53 54 56 57 57 57 58 58 58 57 58 60 62 63 63 63 63 63 62 60 59 60 61 61 59 57 58 58 57 56
32 33 34 35 37 39 40 41 41 42 42 41 42 43 45 46 47 46 44 43 43 42 41 40 40 40 41 43 45 48 49 48 46 47 48 49 48 47 46 45 46 48 50 50 48 48 48 49 50 51 52 52 52 52 52 54 55 57 58 59 60 60 60 59 58 57 58 61 63 63 63 63 64 63 62 61 62 63 63 61 60 60 59 59 59
32 32 33 34 35 36 38 39 40 41 42 43 43 44 45 46 48 48 48 47 47 46 46 45 43 42 41 41 43 45 47 48 49 49 50 51 51 49 48 47 46 48 51 52 51 50 50 50 51 51 52 53 53 53 53 54 55 57 58 60 61 62 62 62 61 60 59 61 63 64 64 64 64 64 63 63 63 65 65 63 62 62 61 61 60
29 30 30 31 32 34 35 36 37 38 39 40 41 42 43 45 46 48 50 50 51 51 51 50 49 48 46 45 44 44 44 46 47 49 50 51 52 51 51 50 48 49 52 54 53 52 50 50 50 51 51 52 53 54 54 54 55 56 56 57 58 60 62 63 63 61 61 61 62 64 64 64 64 64 64 64 64 66 67 64 63 64 63 63 61
22 24 25 27 29 30 32 34 35 36 36 37 38 39 40 42 43 45 48 50 52 53 53 54 54 53 52 51 50 49 48 48 49 50 50 51 52 52 52 52 51 51 53 54 54 53 52 52 52 52 52 52 52 54 55 56 55 55 55 55 55 55 56 59 59 58 58 59 61 62 64 64 64 64 64 65 66 67 68 67 64 64 65 65 64
15 17 18 21 23 25 27 30 32 33 34 35 36 37 38 39 40 42 44 46 48 51 53 54 55 56 57 56 56 55 55 55 55 54 54 54 54 53 54 54 54 54 55 55 55 55 55 55 56 56 56 54 54 54 55 57 57 56 55 54 54 53 52 54 55 54 54 57 59 60 63 64 64 65 66 67 68 68 70 69 66 67 67 65 63
12 13 14 15 17 19 21 23 25 27 29 30 32 33 34 35 37 38 40 42 44 46 48 50 53 55 57 59 60 60 61 62 61 61 60 59 58 57 58 58 58 58 58 58 59 59 59 59 59 60 59 59 58 56 56 58 58 58 57 57 55 54 53 54 54 54 55 56 57 58 60 62 63 64 65 66 67 68 69 69 68 70 70 65 61
9 10 11 13 14 16 17 19 21 23 24 26 27 28 30 31 32 34 36 38 39 41 44 46 48 51 53 56 58 61 63 65 66 66 66 65 64 63 63 63 63 63 63 63 63 63 62 62 62 62 62 62 62 61 60 60 60 61 61 60 59 58 58 57 57 58 58 59 59 58 58 59 59 60 60 61 63 64 65 66 67 69 69 66 62
8 9 10 12 13 15 17 18 20 21 23 24 26 27 28 29 31 32 33 34 35 37 39 41 44 46 49 51 54 57 59 62 65 67 68 69 69 69 69 68 68 68 68 68 67 67 67 67 66 66 66 65 65 65 64 64 65 64 64 63 63 63 63 63 62 62 62 62 62 61 60 58 57 57 56 57 58 60 60 62 64 66 67 66 63
6 8 9 10 12 14 15 17 19 21 22 24 26 27 29 30 31 33 33 34 34 35 35 37 39 41 44 46 49 52 55 57 60 63 66 68 69 71 72 73 73 73 73 72 72 72 72 72 71 71 70 70 68 68 67 68 69 69 68 68 68 67 67 67 66 66 66 65 65 65 63 61 59 57 56 54 54 56 58 59 61 64 66 66 65
6 6 7 8 10 11 12 14 16 17 19 21 22 24 26 28 29 31 32 33 34 35 35 36 37 38 39 41 43 46 49 51 54 57 61 64 66 69 71 73 74 75 76 76 76 76 76 76 76 75 75 75 74 72 71 71 71 72 73 73 73 72 72 71 70 69 69 68 68 67 66 65 63 61 59 57 54 54 57 59 60 62 64 65 65
8 9 9 10 10 11 12 13 14 16 16 18 19 20 21 23 24 26 28 30 31 33 35 36 37 38 38 39 41 42 44 45 47 49 53 56 60 63 66 69 71 73 75 76 77 78 78 78 79 79 79 78 78 77 76 75 75 75 76 77 77 77 76 75 73 73 72 71 70 69 68 67 67 66 64 62 59 56 56 59 61 62 63 64 65
10 11 12 12 13 13 14 15 15 16 17 18 19 19 20 21 21 22 23 25 27 29 31 34 36 37 39 39 40 41 43 44 44 45 46 48 51 54 58 61 64 66 69 71 73 75 77 78 78 79 79 79 79 79 78 78 79 79 79 80 80 80 79 77 77 76 75 74 73 72 71 70 70 69 68 67 65 61 59 60 61 62 63 63 64
12 13 14 15 15 16 16 16 17 17 18 18 19 19 20 21 21 22 22 23 23 25 27 29 32 35 37 39 41 42 43 43 44 45 46 47 48 49 51 53 55 57 59 63 66 68 71 73 75 76 76 77 78 78 78 78 80 81 81 81 81 81 81 80 79 79 78 78 77 76 75 73 73 73 72 71 69 66 64 63 62 62 63 63 63
13 13 14 15 17 17 18 19 19 19 19 19 19 19 19 20 21 22 22 22 23 23 24 26 28 30 33 36 39 42 43 44 45 46 46 47 48 49 50 51 51 52 53 55 58 59 61 63 66 67 69 70 72 73 72 72 74 77 78 79 80 80 81 81 81 80 80 80 79 79 78 78 77 75 75 74 73 71 69 68 67 66 65 65 64
13 13 14 15 16 17 18 19 20 20 20 20 20 20 20 20 20 20 21 21 22 22 23 24 25 26 28 31 34 37 40 43 45 46 47 48 49 50 51 52 52 52 53 53 54 55 55 56 58 59 61 62 63 63 63 63 65 67 70 72 74 75 77 79 79 80 80 80 80 80 79 80 80 78 77 76 75 74 73 73 71 70 70 70 69
13 13 14 15 15 16 17 18 18 19 20 19 20 20 20 20 20 19 19 19 20 21 22 23 24 25 25 27 29 31 34 37 40 42 45 47 49 50 51 52 53 53 53 54 54 54 55 56 56 57 58 58 58 58 57 58 59 60 61 63 65 68 70 72 74 75 76 77 78 78 78 78 78 79 79 78 78 77 76 76 76 74 74 75 75
14 14 14 15 15 15 16 16 17 18 18 19 19 19 19 19 19 19 19 18 18 19 19 21 22 23 24 25 26 27 29 31 34 36 38 40 43 46 48 50 52 53 54 55 55 56 56 56 57 58 59 59 59 58 57 57 58 58 58 59 60 62 64 66 68 69 71 72 74 75 76 76 76 76 77 78 77 78 78 78 78 78 78 77 78
15 15 15 15 15 15 16 16 16 17 18 18 19 19 19 19 19 19 18 18 18 19 19 20 20 21 22 23 24 25 26 28 30 32 33 35 37 38 40 43 46 49 51 54 55 56 57 57 58 58 59 59 60 60 59 59 59 58 59 59 59 60 61 62 63 65 66 67 68 70 71 72 73 74 74 75 75 76 77 78 79 79 80 79 79
15 16 16 16 16 16 16 16 17 17 18 18 18 19 20 20 20 19 19 19 20 20 21 21 21 21 21 21 22 23 24 25 27 29 31 33 35 36 38 39 40 41 44 47 49 52 54 55 57 58 59 59 59 59 59 59 59 58 58 58 59 59 60 60 61 62 63 64 65 66 66 67 69 69 70 71 72 73 74 75 76 76 77 78 79
15 15 16 16 16 16 16 16 17 17 18 18 19 19 20 20 21 21 21 21 21 22 22 23 23 23 23 22 22 22 23 24 25 27 28 30 32 34 36 38 39 40 40 41 43 45 47 50 52 54 57 58 59 59 59 59 59 58 58 58 58 58 59 59 60 60 61 62 63 64 64 64 65 65 66 66 67 67 67 68 69 70 71 73 74
14 15 15 16 16 16 16 16 16 17 18 18 19 19 20 20 21 22 23 24 24 25 25 25 25 25 25 25 25 24 25 25 26 26 27 29 30 31 33 35 37 39 39 40 40 40 42 45 48 50 52 54 56 58 58 59 59 59 59 58 58 58 58 58 59 59 59 59 60 61 62 63 63 63 63 63 63 63 63 64 65 65 66 67 68
13 14 14 15 15 16 16 16 17 17 17 18 19 19 20 20 21 22 23 24 25 26 27 28 28 28 28 28 28 28 28 27 27 28 28 28 29 30 31 32 34 35 37 38 39 39 39 41 44 47 49 51 52 53 54 55 56 57 57 58 57 57 57 57 57 57 58 58 57 57 58 60 61 61 61 61 61 62 62 63 64 65 65 66 68
12 13 13 14 15 15 16 16 17 17 18 18 19 20 20 21 21 22 22 23 24 25 27 28 29 30 30 30 30 30 30 31 31 30 30 30 30 30 31 31 32 33 34 35 36 37 38 39 40 42 45 47 48 49 49 50 51 52 53 55 55 56 56 56 56 56 56 56 56 55 55 56 57 58 58 59 59 60 61 62 64 65 67 68 70
11 12 12 13 13 14 15 16 17 17 18 19 20 21 22 22 23 23 24 24 25 25 26 27 28 29 30 31 31 32 32 33 33 34 34 34 34 34 34 34 33 34 34 34 35 35 36 37 38 40 41 43 45 46 46 46 46 47 48 50 52 53 54 55 55 55 55 55 54 54 53 53 54 55 56 57 57 58 60 62 63 65 67 68 71
12 12 12 13 13 14 14 15 16 17 18 19 20 21 22 23 24 25 25 26 26 27 27 28 28 29 30 31 32 33 33 34 34 35 36 37 38 38 38 38 37 37 36 36 36 36 37 37 38 39 40 41 43 45 46 46 46 45 46 47 48 50 51 52 53 54 55 55 54 53 53 53 54 55 55 56 56 57 59 60 62 63 66 67 69
12 13 13 14 14 15 16 16 17 17 18 19 20 20 21 23 24 25 26 27 27 28 28 29 29 30 31 32 33 34 34 35 35 36 36 37 38 39 40 41 41 41 40 39 39 38 38 38 39 39 40 41 42 43 45 46 47 47 47 46 47 47 48 49 50 51 53 54 54 54 53 52 53 54 55 55 55 56 57 59 60 61 63 65 68
13 14 15 15 16 17 18 18 19 20 20 21 21 22 23 23 24 25 26 26 27 28 29 30 30 31 32 32 33 34 35 36 37 37 37 38 38 39 40 41 42 43 43 42 42 41 40 40 40 40 41 42 42 43 43 44 46 47 48 48 47 47 47 48 48 49 50 51 52 52 52 51 52 53 54 54 56 56 57 58 59 61 63 66 69
15 16 17 18 19 20 20 21 21 22 22 23 23 24 25 25 26 27 27 28 29 29 30 31 32 32 33 34 34 35 36 37 38 38 39 39 40 40 40 40 41 42 42 43 44 43 43 42 41 40 40 41 42 43 44 44 45 46 46 47 47 47 47 48 49 50 50 51 51 51 51 51 51 52 52 53 54 55 55 56 57 59 62 65 66
18 19 20 20 21 22 22 23 23 24 24 25 26 27 27 28 29 30 30 31 32 32 33 34 34 35 35 36 36 37 38 38 39 40 41 41 42 43 43 43 43 43 43 43 43 44 44 44 44 43 42 41 41 41 42 44 45 46 47 47 47 46 46 46 47 49 50 51 51 52 52 51 51 51 51 52 52 52 52 53 54 56 57 57 58
19 20 21 21 22 23 24 25 25 26 27 28 28 29 30 30 31 32 33 34 35 36 37 37 38 39 39 39 40 40 41 41 42 42 43 43 44 45 45 46 46 46 45 45 44 44 44 45 45 45 44 43 42 41 40 41 43 45 46 47 48 48 47 46 45 45 46 46 47 48 49 49 49 48 47 46 46 47 48 48 48 48 47 47 48
20 21 21 22 23 24 25 26 27 28 29 30 31 31 32 33 33 34 35 36 37 38 39 41 42 43 44 44 45 45 46 46 46 46 46 46 46 47 47 48 48 49 49 48 47 46 45 45 45 46 45 45 44 44 42 41 41 41 43 45 46 47 48 48 46 44 43 43 44 44 44 43 43 42 41 41 42 43 43 42 42 41 40 40 40
21 22 23 24 25 26 27 28 29 30 31 32 33 34 34 35 35 36 37 38 39 40 41 42 43 45 46 47 48 49 50 51 51 51 51 51 51 50 50 49 50 50 51 51 51 50 49 47 46 46 46 45 45 45 45 44 42 41 41 41 42 43 44 46 47 46 44 42 43 43 43 42 41 41 42 42 41 40 39 38 37 36 35 35 35
23 24 25 26 27 28 30 31 32 32 33 34 35 36 37 37 38 38 38 39 40 41 43 44 45 45 47 48 49 50 52 53 54 55 56 56 56 56 54 53 52 51 52 52 53 53 52 51 49 47 46 46 45 45 45 46 45 43 42 41 41 40 40 41 43 44 44 43 42 42 42 42 42 43 44 43 40 38 37 36 35 34 33 32 31
25 26 27 28 29 31 32 34 34 35 36 37 38 39 40 41 41 42 42 42 43 44 45 46 47 47 48 49 50 51 53 54 56 57 58 59 60 60 60 58 56 53 53 53 54 54 54 54 52 50 48 47 45 44 44 45 45 45 44 42 41 40 39 39 39 40 41 42 41 41 41 41 41 42 43 43 41 39 37 35 34 34 34 33 30
26 28 29 30 31 33 34 36 37 37 38 39 40 41 42 43 44 45 46 46 46 47 48 49 49 50 51 52 53 55 56 57 58 59 60 62 62 63 63 62 60 56 54 53 54 55 55 55 54 53 51 49 47 45 44 43 44 44 44 43 42 41 40 39 38 37 37 38 38 39 40 41 41 41 41 41 41 41 39 36 35 34 34 33 32
28 29 31 32 33 34 36 37 38 39 40 41 43 44 45 46 47 48 49 49 50 51 52 52 53 54 54 55 56 58 59 60 61 62 63 64 64 64 64 64 62 59 56 54 54 55 55 55 55 54 53 51 49 46 45 43 42 42 42 42 42 42 41 40 38 37 36 35 35 35 35 37 39 39 39 39 39 40 40 39 37 36 35 34 33
31 32 33 35 36 37 38 39 40 41 42 43 45 46 47 48 50 50 51 52 53 54 55 55 56 57 58 59 60 61 62 62 64 64 65 65 65 65 65 64 63 61 59 57 55 54 55 56 55 54 54 52 50 48 46 44 42 41 41 41 40 41 41 41 40 38 36 35 34 33 32 32 33 35 36 37 38 39 40 41 41 40 39 37 35
34 36 36 37 38 39 40 41 43 44 45 46 47 48 49 50 51 52 53 54 55 56 57 58 59 60 62 63 63 64 64 65 65 66 66 66 66 66 65 64 62 61 61 59 56 54 54 55 55 54 53 53 51 49 47 45 43 41 41 40 40 39 39 40 40 39 38 36 35 33 32 30 30 31 32 34 36 38 40 40 41 41 41 39 37
Wind_Direction
240 243 244 245 247 249 250 250 251 253 254 254 253 254 256 256 254 253 254 254 254 255 258 261 264 266 265 267 268 263 255 249 245 241 240 242 248 252 253 253 251 250 250 252 252 249 246 243 244 246 248 251 252 252 251 249 249 250 252 254 256 258 262 266 269 273 276 279 281 283 285 287 288 290 290 292 295 299 301 300 299 298 299 302 304
240 242 245 246 246 248 249 250 251 253 254 255 255 254 254 254 254 254 253 254 254 254 257 259 262 265 264 264 265 265 264 261 253 244 240 242 248 252 254 253 252 250 249 250 252 252 250 246 244 244 246 248 250 252 252 252 252 251 252 254 255 257 259 262 266 269 272 277 279 281 282 284 285 286 287 289 292 295 295 294 295 296 296 297 299
242 243 246 248 248 247 248 250 251 253 254 256 256 255 254 254 254 253 252 252 254 254 255 258 260 262 262 261 262 263 263 263 260 249 242 243 247 249 251 252 251 250 249 249 250 251 251 249 246 244 244 245 246 249 251 252 252 252 252 252 253 255 257 258 260 263 265 269 274 278 280 281 281 282 284 287 289 291 291 291 292 295 295 295 296
246 246 247 250 252 252 251 252 252 252 253 254 254 253 253 254 254 252 251 250 251 252 254 256 257 258 259 260 260 261 261 261 259 254 248 247 247 247 250 253 252 250 249 248 248 249 250 249 247 245 245 244 243 245 248 249 251 252 253 253 252 253 254 256 257 258 260 262 267 272 276 278 280 281 283 284 286 287 287 288 290 291 293 294 293
250 251 250 251 253 254 254 254 254 254 253 252 252 253 253 252 252 252 251 249 249 250 251 252 254 255 257 259 259 261 262 262 260 258 253 249 247 246 248 252 253 253 251 249 247 247 248 249 249 247 246 245 244 244 245 247 249 250 252 253 254 253 253 255 256 256 257 258 260 265 270 274 277 280 282 283 283 283 283 285 287 288 290 290 289
251 251 251 251 251 253 254 255 255 255 255 253 253 253 253 252 250 250 250 249 249 250 251 250 250 253 255 257 259 260 261 262 263 261 257 252 248 246 247 249 252 253 254 252 249 247 246 247 249 249 248 247 247 245 245 246 248 249 250 252 253 254 254 255 257 257 257 256 256 258 262 267 270 274 278 280 281 281 282 282 282 284 285 284 285
249 249 250 250 250 250 252 254 255 255 255 254 253 252 252 252 250 249 250 250 250 252 253 251 250 251 253 256 258 259 260 261 261 260 258 255 251 248 248 250 252 253 254 255 253 250 248 247 248 249 249 248 248 247 246 246 248 249 249 250 252 253 254 255 257 258 259 259 257 256 258 261 264 266 270 274 278 281 282 280 278 278 279 280 282
246 246 247 248 249 249 251 253 255 255 254 254 253 252 251 251 251 250 251 252 253 254 255 253 251 251 252 255 257 257 259 260 259 259 258 255 252 250 249 251 252 253 254 256 256 253 251 248 248 249 250 249 249 250 249 248 248 248 249 250 251 252 253 254 256 257 258 260 260 259 258 259 261 263 264 267 272 276 279 279 278 277 276 277 279
242 243 244 245 246 248 249 251 254 255 254 254 253 252 251 250 250 250 251 252 254 255 255 254 253 252 252 255 257 256 257 259 260 259 257 254 252 250 249 250 251 253 256 257 258 257 253 250 249 250 252 251 251 251 251 249 249 249 250 250 251 253 253 253 254 255 256 258 260 261 260 260 261 263 264 265 266 269 272 275 277 278 276 274 275
241 241 241 242 244 245 247 249 252 254 254 252 251 251 251 250 249 250 250 250 252 255 255 254 253 252 252 253 256 256 256 257 258 258 256 253 252 250 250 250 251 253 256 258 259 258 256 252 251 252 254 255 254 253 252 251 250 249 250 251 251 253 253 253 253 254 255 256 258 259 260 260 260 261 263 264 265 266 267 270 273 274 275 275 275
243 243 242 241 241 243 245 247 249 251 252 251 249 249 250 249 249 249 250 251 253 254 254 253 253 253 252 251 253 255 256 256 255 254 253 252 251 250 250 251 252 253 255 256 257 258 257 254 253 253 255 256 256 256 255 253 252 251 251 252 252 253 254 253 254 255 255 255 256 257 258 259 259 259 261 263 264 265 265 265 267 269 271 273 275
245 244 243 241 240 241 243 245 248 249 251 250 248 247 247 248 248 249 251 253 254 254 253 252 252 252 252 251 251 253 255 254 251 249 249 249 251 252 252 251 252 253 253 253 255 256 256 255 254 254 255 256 257 258 258 257 256 254 253 253 253 254 254 255 255 256 257 257 257 257 257 258 258 259 260 261 262 263 263 263 263 265 266 268 271
245 244 244 242 241 241 242 243 245 247 249 250 249 247 246 246 248 250 251 252 253 253 253 252 252 252 251 251 251 251 253 253 249 246 246 248 251 254 254 252 252 251 251 252 253 254 256 256 255 255 256 257 258 258 260 260 259 257 254 253 253 253 254 255 256 257 258 258 257 257 257 258 259 260 260 260 260 261 262 262 262 262 264 266 267
245 245 245 245 244 243 243 244 245 246 248 248 249 248 246 245 247 249 250 251 251 252 252 252 252 251 250 249 248 249 250 251 250 248 247 248 251 254 254 253 252 251 251 252 253 254 256 256 256 257 257 258 259 259 259 260 260 259 258 256 255 255 255 255 256 257 259 259 258 258 257 258 258 259 259 259 259 260 261 261 261 261 262 263 264
247 246 246 247 248 248 247 247 247 248 248 249 249 249 248 246 246 247 248 250 250 251 252 252 252 252 251 249 248 248 249 250 250 250 250 250 251 253 253 252 252 251 250 251 253 254 255 256 257 257 258 258 259 259 259 260 261 261 261 260 259 258 256 256 256 258 260 261 260 260 259 258 259 259 259 259 259 260 260 261 262 263 262 262 263
248 247 246 247 249 250 251 252 251 251 251 251 251 251 250 249 247 246 247 248 249 250 250 250 250 251 251 251 251 250 251 251 251 251 252 252 252 253 252 251 250 250 249 250 251 253 254 256 257 258 259 259 259 259 259 261 262 262 261 261 261 259 257 257 257 258 260 261 262 262 261 261 261 261 261 260 260 260 260 260 261 263 264 264 264
246 245 244 244 246 248 251 253 255 255 255 255 255 254 254 254 252 251 249 248 248 248 248 248 248 248 248 249 249 250 251 252 253 253 253 253 253 252 251 249 248 247 247 248 249 251 253 255 257 258 258 259 260 260 260 260 261 261 260 261 261 259 258 257 258 258 259 260 261 262 263 262 262 262 261 261 261 260 260 260 260 261 263 263 264
242 241 240 241 243 246 249 252 254 256 256 256 257 256 256 257 257 256 255 254 252 251 250 249 248 248 247 246 247 247 248 249 251 251 252 253 253 252 250 249 248 246 246 247 248 251 253 255 257 258 258 258 259 259 260 260 260 260 260 260 259 258 258 259 260 259 258 258 259 260 261 262 262 262 261 261 260 260 260 261 260 260 260 260 262
245 244 243 243 243 245 247 249 252 254 256 257 258 258 258 258 257 258 258 257 257 256 255 254 253 252 250 248 247 247 247 248 248 249 250 251 251 251 250 249 248 247 247 248 249 251 253 255 256 257 257 257 257 258 258 259 259 259 259 259 258 257 258 260 261 260 260 258 257 257 258 260 262 263 263 262 261 260 260 261 260 260 260 260 259
252 253 252 251 250 250 250 251 253 255 257 259 260 261 262 262 262 261 260 259 258 258 257 257 257 257 256 254 252 250 249 249 249 249 249 249 250 250 250 249 249 249 249 250 251 253 254 256 257 257 257 257 256 256 256 257 257 257 258 258 258 258 259 260 260 260 261 260 260 259 259 259 260 263 264 264 264 263 261 261 261 260 261 261 259
258 259 258 258 257 257 257 257 257 259 260 261 262 263 264 265 265 265 264 264 262 261 259 258 257 257 257 257 257 256 255 254 253 253 252 251 250 250 250 251 251 251 251 252 252 254 255 257 258 258 258 257 256 256 256 256 256 256 256 257 257 258 259 259 259 260 260 261 261 262 262 261 261 263 264 264 265 265 264 262 261 260 261 262 262
265 262 260 258 258 258 258 259 260 261 262 263 264 265 265 265 265 265 265 265 265 264 263 261 260 259 258 257 257 257 258 258 258 257 257 256 255 254 253 252 252 252 252 253 254 255 256 257 258 259 258 257 256 256 255 255 256 256 257 257 257 257 258 258 259 260 260 261 262 263 263 264 264 264 264 264 264 264 264 263 261 260 260 260 261
275 270 266 263 261 261 261 260 260 261 262 263 264 266 266 267 267 268 268 267 266 265 264 264 263 262 261 260 259 259 258 258 258 258 259 259 259 259 258 257 256 254 253 253 254 255 256 257 258 258 258 258 257 256 256 255 256 256 257 257 258 258 258 258 259 259 260 261 262 263 264 264 265 265 265 265 264 262 261 262 261 260 259 259 260
284 279 275 271 269 267 266 265 264 263 263 264 265 266 268 269 270 271 272 271 270 269 267 266 265 264 263 262 262 262 261 261 261 260 259 259 260 260 260 261 260 260 258 257 257 257 258 258 258 259 259 259 259 258 258 257 257 257 257 259 259 259 259 259 259 260 261 261 262 263 263 264 265 265 265 266 265 263 260 260 260 260 260 260 260
292 288 284 280 275 273 271 270 269 269 269 269 270 271 273 274 275 276 276 276 276 274 272 270 268 267 266 265 264 263 263 263 263 263 262 261 261 260 260 261 261 261 261 261 261 261 261 261 262 262 262 262 261 260 260 259 259 259 259 260 261 261 261 261 261 262 262 262 262 263 263 263 264 264 264 264 264 263 262 261 261 261 261 261 261
292 290 289 286 283 280 277 275 274 273 272 272 273 275 277 278 279 280 280 281 281 281 278 275 272 269 267 266 265 265 264 264 264 263 263 263 262 262 262 262 262 262 262 262 262 262 263 263 264 264 265 265 265 264 263 262 262 262 262 262 262 262 262 262 262 262 262 262 262 262 261 261 261 261 262 262 261 261 262 263 262 262 262 261 262
296 295 293 292 290 288 285 283 281 279 277 277 277 277 279 281 282 282 283 283 284 285 284 281 278 274 271 268 266 265 265 265 265 265 264 264 264 264 264 264 264 264 263 263 263 263 263 263 264 264 264 264 265 266 265 264 263 264 264 264 263 263 262 262 262 262 261 261 262 262 261 261 261 260 260 261 261 261 261 262 262 262 262 262 262
304 302 301 299 297 295 293 291 289 287 285 283 283 282 282 283 284 284 285 287 289 292 292 290 286 281 277 273 270 268 266 265 264 264 265 265 265 265 266 266 265 265 265 265 264 264 265 264 264 264 264 264 264 264 264 263 263 262 263 264 264 263 263 263 263 262 262 262 261 261 261 261 262 261 261 261 261 261 261 262 262 262 263 263 262
311 309 307 304 301 299 297 296 295 294 292 291 289 287 287 286 286 285 284 285 289 294 297 299 298 294 288 282 277 274 272 270 268 267 266 266 266 266 267 267 268 268 268 268 267 267 267 267 267 266 266 265 264 263 262 262 261 261 261 261 262 263 263 263 263 262 262 262 262 262 262 262 262 262 262 262 261 261 262 262 262 262 262 263 263
317 315 312 308 305 302 300 299 298 298 298 298 297 296 294 293 292 289 286 284 285 289 294 298 300 300 298 294 289 283 279 277 275 274 272 271 270 269 268 268 268 268 268 268 268 268 268 268 269 268 268 267 266 265 263 262 262 262 261 260 261 261 261 262 262 261 261 261 261 261 262 262 262 262 262 262 262 261 261 262 262 263 263 263 264
322 320 318 316 313 310 306 304 304 303 303 302 303 303 304 303 302 299 295 291 290 292 296 298 298 297 296 296 294 291 288 284 282 281 280 279 278 277 275 274 272 271 270 269 269 269 268 268 269 268 268 268 268 267 266 265 264 264 263 262 262 261 261 261 261 261 261 261 260 260 261 261 261 261 262 262 261 261 260 260 260 261 261 262 262
327 327 326 324 321 319 316 313 311 310 309 308 306 306 307 309 309 308 305 301 298 298 300 302 302 300 298 295 293 292 290 289 286 285 283 282 281 280 280 279 279 278 276 274 273 271 270 269 269 269 269 269 269 268 267 267 267 266 265 264 264 263 262 261 261 261 260 260 260 260 260 260 261 261 261 261 261 261 261 260 260 260 260 260 260
335 335 334 333 331 328 326 323 320 318 317 315 314 312 312 312 312 311 310 307 305 303 303 304 304 304 302 299 297 295 293 292 290 289 287 285 283 282 281 280 279 279 279 279 278 276 274 272 271 269 269 269 269 269 268 268 268 267 266 265 264 264 263 263 262 261 260 260 260 260 260 260 260 261 261 261 261 261 261 261 261 261 260 260 260
342 342 341 340 339 337 335 332 329 327 325 323 322 320 319 318 316 315 313 311 310 308 307 306 306 306 305 304 302 300 297 296 294 293 292 290 289 287 286 284 282 280 279 278 278 277 276 274 272 270 268 267 267 267 267 267 267 267 267 266 266 265 264 263 263 262 261 260 260 260 260 260 260 261 261 262 262 262 262 262 262 262 262 262 262
345 344 343 342 341 340 339 336 334 331 329 328 326 325 324 323 322 320 318 317 315 313 312 311 309 308 307 306 304 303 301 299 298 296 295 294 293 292 291 290 289 288 285 282 280 277 275 274 272 269 267 265 265 265 265 265 266 266 266 266 266 266 265 264 263 261 260 260 259 259 259 260 260 261 261 261 262 263 263 264 264 264 264 264 264
342 341 341 340 339 337 335 334 332 330 329 328 327 326 325 324 323 322 321 320 319 317 316 315 313 312 310 309 307 305 303 301 299 298 297 296 296 296 296 296 295 295 293 291 287 284 280 277 275 272 269 265 264 263 263 263 264 264 264 265 265 265 265 265 263 262 261 259 259 258 258 258 259 260 260 261 262 263 264 264 264 265 265 265 265
338 338 337 336 335 333 331 330 329 328 327 326 325 324 323 322 321 321 319 319 318 316 316 315 314 314 313 313 311 310 308 307 305 303 301 299 298 297 297 297 298 298 298 298 296 293 289 285 281 279 275 271 267 264 263 263 263 262 263 263 263 264 264 264 264 263 261 260 259 258 258 258 258 259 260 261 262 263 263 264 264 265 265 265 265
337 337 336 334 332 331 330 329 328 327 325 324 323 322 321 320 319 318 317 316 315 314 314 313 313 313 313 313 312 312 311 310 309 308 306 304 303 301 299 298 298 298 299 300 300 299 297 294 289 285 282 278 273 268 264 263 262 262 262 263 262 262 262 262 262 262 261 260 259 258 258 258 260 261 262 262 263 263 264 264 265 265 266 267 266
335 335 335 334 334 334 334 333 331 329 327 325 323 321 320 318 317 316 316 315 314 314 313 312 312 311 311 311 311 310 310 310 309 308 308 307 306 304 303 301 299 298 297 296 296 297 297 297 296 293 290 286 282 277 271 266 264 263 263 264 264 263 263 262 262 260 259 259 258 258 258 258 259 261 262 263 263 263 263 264 265 267 267 268 268
332 332 333 334 335 336 335 334 333 331 329 327 324 322 320 319 318 316 315 315 314 313 313 312 312 311 310 309 309 309 308 308 307 307 306 306 305 304 303 302 301 299 297 295 294 293 293 293 294 294 294 292 291 288 283 277 271 267 265 265 266 266 265 264 263 262 260 258 257 258 258 259 261 262 263 264 264 264 265 266 267 267 269 270 270
330 331 333 334 335 335 334 332 331 330 328 327 325 324 323 322 320 319 318 317 316 315 314 314 313 312 311 310 309 308 307 306 306 305 304 304 303 302 302 301 300 299 298 297 295 293 291 289 289 289 290 291 292 291 290 287 282 277 273 269 268 268 268 267 266 264 263 261 260 259 260 261 262 263 264 266 267 267 266 267 267 269 271 272 273
328 329 330 330 330 330 329 328 327 326 326 325 325 324 324 323 323 322 322 321 320 319 318 317 316 315 313 312 310 309 308 306 305 304 303 303 302 301 300 300 299 298 297 297 296 294 292 290 288 286 285 286 287 288 289 289 288 285 281 277 273 271 270 269 268 267 266 265 265 264 263 263 264 265 267 267 267 266 267 268 270 273 275 276 278
323 323 324 325 325 325 325 324 324 324 323 323 323 323 323 322 322 322 322 321 321 320 319 319 317 316 315 314 313 311 310 308 307 305 304 302 301 300 299 298 298 297 296 296 295 294 293 292 290 288 285 283 282 283 284 285 286 286 285 283 279 275 273 271 270 269 267 266 266 266 266 265 265 266 266 266 265 266 268 271 273 276 279 282 286
316 317 319 319 320 320 321 321 321 322 321 321 321 321 320 320 320 319 319 318 318 318 317 317 316 316 315 315 314 313 312 311 309 308 306 304 302 300 298 297 296 295 295 294 293 293 292 291 290 289 287 285 282 280 279 280 281 282 283 283 282 280 277 274 272 270 269 266 264 263 264 265 264 263 263 264 266 269 271 272 275 279 283 288 290
312 313 315 316 317 317 318 318 319 320 319 319 319 318 318 317 316 316 315 315 314 314 314 313 313 313 313 312 312 312 311 310 309 308 307 306 304 302 299 297 295 294 293 292 291 291 290 289 289 288 287 286 285 282 280 278 277 278 280 281 282 282 280 278 275 272 270 269 266 264 264 263 262 260 260 263 266 269 270 272 275 279 284 289 290
309 311 312 313 314 314 315 315 316 316 316 316 315 315 315 314 314 313 313 312 312 311 311 310 310 310 309 309 309 309 309 308 307 307 306 305 304 303 301 299 296 293 291 290 289 289 288 288 287 286 286 285 285 284 282 280 278 276 276 278 279 280 281 280 278 274 271 270 269 267 266 265 263 260 258 259 263 267 268 268 272 277 281 285 286
307 308 310 311 311 312 312 312 313 314 313 313 313 312 312 312 312 312 312 312 312 311 311 310 309 309 309 308 308 307 307 306 305 304 303 302 301 301 300 299 297 294 291 289 287 286 286 286 286 285 284 284 283 282 282 281 280 278 276 275 276 278 279 280 280 278 275 271 269 267 266 266 265 262 259 257 259 263 265 265 268 273 276 278 279
305 306 307 308 309 309 310 310 311 311 311 311 311 311 311 311 311 311 311 311 311 312 311 310 310 309 309 309 308 308 307 306 305 303 302 301 300 299 298 297 296 294 291 288 286 285 284 283 283 283 283 282 281 280 280 279 279 278 277 275 275 276 276 277 278 279 279 277 275 271 268 266 266 266 265 262 261 264 267 267 268 270 271 273 275
302 304 305 306 306 307 308 308 309 309 309 309 309 309 309 309 310 310 310 310 311 311 311 311 310 310 310 310 309 309 308 307 305 303 302 300 299 298 297 296 294 293 290 287 285 283 282 282 281 281 281 281 280 279 278 277 277 277 276 276 275 275 275 276 276 276 277 278 279 278 274 270 268 268 267 266 266 268 270 271 269 268 268 270 271
303 305 306 307 307 307 308 308 308 307 307 308 308 308 308 308 308 309 309 310 310 311 311 311 311 311 310 310 310 309 308 306 305 303 301 300 298 297 296 294 293 291 290 287 285 282 281 281 280 279 279 279 279 278 277 276 275 274 274 274 274 274 274 275 275 275 275 276 277 279 278 275 271 268 266 264 263 264 267 269 270 269 269 270 270
304 306 307 307 308 308 308 308 308 308 308 308 308 308 307 307 307 308 308 309 310 310 310 311 311 311 310 310 309 309 308 306 304 302 300 299 297 296 295 293 292 290 289 287 285 282 279 279 279 279 278 278 278 278 277 276 275 274 273 273 272 272 272 273 273 273 274 274 274 275 276 277 275 272 267 263 260 257 258 261 264 266 268 269 270
Height
5769 5772 5774 5778 5780 5782 5784 5786 5788 5790 5791 5794 5796 5798 5799 5800 5802 5804 5805 5806 5807 5807 5808 5809 5810 5810 5811 5812 5813 5814 5816 5817 5818 5820 5822 5824 5826 5829 5831 5832 5834 5836 5837 5839 5840 5841 5841 5842 5844 5845 5845 5846 5847 5847 5848 5848 5849 5849 5849 5849 5849 5849 5849 5849 5850 5849 5847 5847 5848 5848 5849 5849 5849 5848 5847 5847 5848 5848 5847 5846 5845 5844 5843 5842 5841
5765 5767 5769 5772 5775 5778 5780 5782 5783 5785 5787 5789 5792 5794 5795 5796 5798 5800 5801 5802 5803 5804 5804 5805 5806 5807 5807 5808 5809 5811 5812 5813 5815 5816 5818 5820 5822 5824 5826 5827 5829 5830 5832 5833 5835 5837 5838 5838 5840 5840 5841 5842 5843 5843 5844 5845 5845 5846 5846 5846 5846 5845 5845 5845 5846 5847 5846 5844 5844 5845 5846 5846 5846 5844 5844 5844 5845 5845 5844 5843 5842 5841 5841 5841 5840
5761 5763 5764 5766 5769 5773 5775 5777 5779 5781 5783 5785 5787 5789 5791 5792 5794 5795 5796 5798 5799 5800 5801 5801 5803 5803 5803 5804 5805 5806 5808 5809 5811 5813 5815 5816 5818 5819 5820 5822 5824 5825 5826 5828 5830 5831 5832 5833 5835 5835 5836 5837 5838 5838 5839 5840 5841 5842 5842 5842 5842 5842 5841 5841 5842 5843 5843 5842 5841 5841 5841 5842 5842 5841 5841 5841 5842 5842 5841 5841 5840 5840 5839 5838 5837
5757 5759 5760 5762 5764 5767 5770 5773 5775 5776 5778 5780 5782 5784 5786 5787 5789 5790 5792 5793 5794 5795 5796 5797 5798 5799 5799 5800 5801 5802 5804 5805 5807 5809 5811 5812 5813 5814 5815 5816 5818 5819 5821 5822 5824 5825 5826 5827 5829 5830 5830 5830 5831 5833 5834 5835 5836 5837 5837 5837 5838 5838 5837 5836 5837 5838 5838 5839 5839 5838 5837 5837 5837 5837 5837 5838 5838 5838 5838 5838 5837 5837 5837 5835 5834
5753 5755 5757 5758 5760 5762 5764 5767 5769 5771 5773 5775 5777 5779 5781 5782 5784 5785 5787 5788 5789 5791 5792 5793 5794 5794 5795 5796 5797 5798 5800 5801 5802 5804 5806 5807 5808 5809 5810 5811 5813 5814 5815 5816 5817 5818 5819 5821 5822 5824 5824 5824 5826 5827 5828 5829 5830 5831 5832 5833 5833 5834 5833 5832 5831 5832 5833 5835 5836 5835 5833 5833 5833 5833 5832 5833 5833 5833 5834 5834 5834 5834 5833 5832 5831
5749 5751 5753 5754 5756 5758 5759 5761 5763 5765 5767 5770 5772 5774 5775 5777 5779 5780 5782 5783 5784 5786 5787 5788 5789 5790 5791 5792 5793 5794 5795 5796 5797 5798 5800 5802 5803 5804 5805 5806 5808 5808 5809 5810 5811 5812 5813 5814 5816 5817 5818 5819 5820 5821 5823 5824 5824 5825 5826 5827 5827 5828 5828 5828 5827 5827 5827 5829 5830 5831 5830 5828 5828 5829 5828 5827 5827 5828 5830 5831 5830 5830 5829 5828 5827
5746 5747 5749 5750 5752 5754 5755 5756 5758 5760 5762 5764 5767 5769 5770 5772 5774 5775 5777 5778 5779 5781 5782 5783 5784 5785 5786 5787 5788 5789 5790 5791 5792 5793 5794 5796 5797 5799 5800 5801 5803 5804 5804 5805 5805 5806 5807 5808 5810 5811 5812 5813 5813 5815 5817 5818 5818 5818 5819 5820 5820 5821 5822 5823 5823 5822 5822 5823 5824 5826 5826 5824 5823 5824 5824 5823 5822 5824 5825 5825 5826 5826 5824 5824 5823
5741 5743 5744 5746 5747 5749 5750 5752 5753 5755 5757 5759 5761 5763 5765 5767 5769 5770 5771 5773 5774 5775 5776 5778 5779 5780 5781 5782 5783 5785 5786 5786 5787 5788 5789 5790 5792 5793 5795 5796 5797 5798 5799 5799 5800 5801 5801 5802 5803 5805 5806 5807 5807 5808 5810 5811 5811 5811 5812 5813 5814 5814 5815 5816 5817 5817 5817 5817 5818 5819 5820 5820 5818 5818 5819 5819 5819 5820 5819 5818 5819 5821 5820 5819 5819
5736 5737 5739 5741 5743 5744 5746 5747 5749 5750 5752 5754 5756 5758 5760 5762 5763 5765 5766 5767 5769 5770 5771 5772 5773 5775 5776 5777 5779 5780 5781 5782 5783 5783 5784 5785 5786 5788 5789 5791 5792 5793 5794 5794 5795 5795 5796 5797 5798 5799 5800 5801 5802 5802 5803 5805 5805 5805 5806 5807 5807 5808 5808 5809 5810 5810 5810 5811 5812 5812 5813 5814 5814 5813 5813 5814 5814 5815 5814 5812 5813 5814 5813 5813 5814
5731 5733 5734 5736 5738 5739 5741 5743 5744 5745 5746 5748 5750 5752 5754 5756 5758 5759 5761 5762 5763 5765 5766 5767 5768 5770 5771 5773 5774 5775 5776 5777 5778 5778 5779 5780 5781 5782 5784 5785 5787 5787 5788 5789 5790 5790 5791 5792 5793 5794 5795 5795 5796 5796 5797 5798 5799 5799 5799 5799 5800 5801 5802 5802 5803 5803 5804 5804 5805 5805 5805 5807 5808 5808 5808 5808 5808 5809 5809 5808 5807 5807 5806 5806 5808
5727 5728 5729 5731 5732 5734 5736 5738 5739 5740 5741 5743 5744 5746 5748 5750 5752 5754 5755 5757 5758 5759 5760 5761 5763 5764 5766 5767 5769 5770 5771 5772 5773 5774 5774 5775 5776 5777 5778 5780 5781 5782 5783 5784 5785 5786 5786 5787 5788 5788 5789 5790 5790 5790 5791 5792 5793 5793 5793 5793 5793 5794 5794 5795 5796 5797 5797 5797 5798 5798 5798 5799 5801 5802 5802 5803 5803 5802 5802 5802 5801 5801 5800 5800 5801
5724 5725 5726 5727 5728 5729 5731 5732 5734 5735 5736 5738 5739 5741 5743 5744 5746 5748 5750 5751 5753 5754 5755 5756 5757 5759 5760 5762 5763 5765 5766 5767 5768 5768 5769 5770 5771 5772 5773 5774 5775 5776 5777 5778 5779 5780 5781 5781 5782 5783 5784 5784 5784 5785 5785 5786 5787 5787 5787 5787 5786 5786 5787 5788 5789 5791 5791 5791 5791 5792 5792 5792 5793 5795 5797 5798 5797 5795 5794 5795 5796 5795 5794 5794 5795
5720 5721 5722 5723 5724 5725 5727 5728 5729 5730 5731 5733 5734 5735 5737 5739 5741 5743 5744 5745 5747 5748 5750 5751 5752 5753 5754 5756 5757 5759 5760 5761 5762 5762 5763 5764 5765 5766 5768 5769 5770 5771 5772 5772 5773 5774 5775 5776 5776 5777 5778 5778 5779 5779 5779 5779 5780 5781 5781 5780 5779 5779 5780 5781 5782 5783 5784 5784 5784 5784 5785 5786 5786 5788 5791 5791 5790 5788 5787 5788 5789 5788 5787 5788 5789
5716 5717 5718 5719 5720 5721 5722 5723 5724 5726 5726 5727 5728 5730 5731 5733 5735 5737 5738 5740 5741 5742 5744 5745 5747 5748 5749 5750 5751 5753 5754 5755 5756 5756 5757 5757 5759 5760 5762 5763 5764 5765 5766 5766 5767 5768 5769 5769 5770 5771 5771 5772 5772 5773 5773 5773 5773 5774 5774 5774 5773 5773 5774 5774 5775 5776 5777 5777 5777 5778 5779 5780 5779 5781 5783 5784 5783 5781 5780 5780 5781 5781 5781 5781 5782
5712 5713 5714 5715 5717 5718 5719 5719 5720 5721 5722 5723 5723 5724 5726 5727 5729 5730 5732 5734 5735 5736 5738 5739 5741 5742 5743 5744 5745 5746 5747 5748 5749 5749 5750 5751 5753 5754 5756 5757 5758 5759 5760 5761 5761 5762 5762 5763 5763 5764 5765 5765 5766 5766 5767 5767 5767 5766 5766 5766 5767 5767 5767 5767 5768 5769 5769 5770 5770 5771 5772 5773 5773 5773 5775 5776 5776 5775 5774 5774 5775 5774 5774 5774 5775
5707 5709 5710 5711 5713 5714 5715 5716 5716 5717 5718 5718 5719 5720 5721 5722 5723 5725 5726 5727 5729 5730 5731 5733 5734 5736 5737 5738 5739 5740 5741 5741 5742 5743 5743 5745 5746 5748 5750 5751 5752 5753 5754 5754 5755 5755 5756 5756 5757 5758 5758 5759 5759 5760 5760 5760 5759 5759 5758 5758 5759 5759 5759 5760 5761 5762 5763 5762 5763 5764 5765 5766 5767 5767 5768 5769 5769 5768 5767 5768 5769 5768 5767 5767 5768
5703 5704 5706 5707 5708 5710 5711 5712 5713 5713 5714 5714 5715 5715 5716 5717 5718 5719 5720 5721 5722 5723 5725 5726 5727 5729 5730 5731 5733 5734 5734 5734 5735 5736 5737 5738 5740 5741 5743 5744 5745 5746 5747 5747 5748 5748 5749 5750 5750 5751 5752 5752 5753 5753 5753 5752 5752 5751 5751 5751 5751 5751 5752 5753 5753 5755 5756 5756 5756 5756 5756 5758 5759 5760 5760 5760 5761 5760 5758 5759 5762 5763 5762 5761 5761
5700 5701 5702 5703 5704 5705 5706 5708 5708 5709 5710 5710 5711 5711 5712 5713 5713 5714 5715 5716 5717 5717 5718 5720 5721 5722 5723 5724 5725 5727 5727 5727 5727 5729 5730 5731 5733 5735 5736 5737 5738 5739 5740 5740 5741 5741 5742 5743 5744 5744 5745 5746 5747 5747 5746 5745 5744 5744 5744 5744 5744 5745 5746 5746 5746 5748 5749 5749 5749 5749 5748 5749 5750 5751 5752 5752 5752 5752 5750 5750 5755 5755 5753 5754 5756
5697 5698 5699 5700 5701 5702 5702 5703 5704 5705 5705 5706 5706 5707 5707 5708 5709 5710 5710 5710 5711 5712 5713 5714 5714 5715 5716 5717 5718 5719 5719 5719 5720 5721 5722 5724 5726 5727 5728 5729 5730 5731 5732 5733 5734 5734 5735 5736 5736 5737 5738 5739 5739 5740 5740 5738 5737 5737 5737 5737 5737 5738 5740 5740 5740 5741 5741 5741 5741 5742 5741 5741 5741 5741 5742 5743 5743 5744 5743 5743 5746 5746 5744 5748 5752
5695 5696 5696 5697 5698 5698 5699 5700 5700 5701 5702 5702 5702 5703 5703 5704 5704 5705 5705 5705 5706 5706 5707 5708 5708 5708 5709 5710 5711 5712 5712 5712 5712 5713 5714 5716 5718 5719 5720 5721 5722 5723 5725 5726 5726 5727 5728 5728 5729 5730 5730 5731 5732 5732 5732 5731 5730 5730 5729 5729 5730 5731 5732 5733 5733 5733 5733 5733 5733 5734 5734 5735 5735 5734 5735 5735 5735 5735 5736 5737 5738 5738 5737 5740 5744
5693 5694 5694 5694 5695 5695 5696 5696 5697 5697 5698 5698 5699 5699 5699 5700 5700 5700 5700 5700 5701 5701 5701 5702 5702 5702 5702 5703 5703 5704 5705 5705 5705 5705 5706 5708 5710 5711 5711 5712 5713 5715 5716 5717 5718 5719 5719 5720 5721 5722 5722 5723 5723 5723 5724 5724 5722 5721 5722 5722 5722 5723 5723 5724 5724 5725 5725 5725 5726 5726 5726 5727 5728 5728 5728 5728 5728 5728 5729 5730 5730 5731 5731 5732 5735
5692 5692 5692 5692 5693 5693 5693 5693 5694 5694 5694 5695 5695 5695 5695 5695 5695 5695 5695 5696 5696 5696 5696 5696 5696 5696 5696 5696 5696 5697 5697 5698 5698 5698 5699 5700 5701 5702 5702 5703 5704 5705 5707 5708 5709 5710 5711 5712 5713 5713 5713 5714 5715 5715 5716 5715 5714 5714 5714 5714 5714 5715 5714 5715 5716 5716 5716 5717 5718 5719 5719 5720 5721 5721 5722 5723 5724 5723 5722 5723 5723 5723 5723 5725 5727
5691 5691 5691 5691 5691 5691 5691 5691 5691 5691 5691 5691 5691 5691 5691 5691 5690 5690 5690 5690 5691 5691 5690 5690 5690 5690 5690 5690 5690 5690 5690 5690 5690 5691 5692 5693 5693 5693 5694 5694 5694 5695 5697 5699 5700 5701 5702 5702 5703 5704 5704 5704 5705 5706 5706 5707 5706 5706 5706 5705 5705 5706 5705 5706 5707 5708 5708 5709 5710 5711 5712 5713 5713 5714 5714 5715 5717 5717 5716 5715 5715 5715 5715 5716 5718
5690 5690 5689 5689 5689 5689 5689 5689 5689 5689 5689 5688 5688 5688 5687 5687 5686 5686 5685 5685 5685 5685 5685 5684 5684 5684 5684 5684 5684 5684 5684 5683 5683 5684 5685 5685 5685 5685 5685 5686 5686 5687 5688 5690 5691 5691 5692 5693 5693 5694 5694 5694 5694 5695 5696 5697 5697 5697 5696 5695 5695 5695 5696 5697 5699 5699 5700 5701 5702 5703 5705 5706 5706 5706 5706 5706 5707 5708 5708 5707 5707 5707 5708 5708 5710
5687 5687 5687 5687 5687 5687 5687 5687 5687 5686 5686 5686 5685 5684 5684 5683 5683 5682 5682 5681 5680 5680 5679 5678 5678 5678 5678 5678 5678 5678 5678 5678 5678 5678 5678 5678 5677 5677 5677 5677 5677 5678 5680 5680 5681 5681 5682 5683 5683 5683 5683 5684 5684 5684 5686 5687 5686 5686 5686 5686 5685 5686 5687 5689 5689 5690 5691 5692 5693 5695 5696 5697 5697 5697 5698 5697 5697 5698 5699 5698 5699 5700 5701 5702 5703
5685 5684 5684 5684 5683 5683 5683 5683 5683 5683 5683 5682 5682 5681 5680 5680 5679 5678 5678 5677 5676 5675 5674 5673 5673 5672 5672 5672 5672 5672 5672 5672 5672 5672 5672 5672 5671 5670 5669 5669 5669 5670 5671 5671 5671 5672 5673 5673 5673 5672 5672 5673 5673 5674 5676 5677 5677 5676 5676 5676 5676 5676 5677 5679 5679 5680 5680 5681 5682 5684 5686 5687 5687 5688 5688 5688 5688 5690 5691 5691 5691 5691 5692 5693 5695
5682 5682 5681 5681 5680 5680 5679 5679 5679 5679 5679 5678 5678 5677 5677 5676 5675 5675 5674 5673 5672 5672 5671 5669 5668 5667 5667 5666 5666 5665 5665 5666 5665 5665 5665 5665 5665 5664 5663 5663 5663 5663 5663 5663 5663 5664 5664 5664 5663 5663 5663 5663 5663 5664 5666 5667 5667 5667 5666 5666 5666 5667 5667 5668 5668 5669 5670 5671 5671 5673 5674 5675 5676 5678 5679 5679 5680 5682 5683 5683 5683 5683 5684 5684 5686
5680 5679 5679 5678 5677 5676 5676 5675 5675 5674 5674 5674 5674 5673 5673 5673 5672 5671 5670 5670 5669 5668 5667 5666 5664 5663 5662 5661 5660 5659 5659 5659 5659 5659 5659 5658 5658 5658 5657 5657 5656 5656 5656 5656 5656 5656 5656 5655 5655 5654 5654 5654 5655 5655 5656 5657 5657 5657 5657 5657 5657 5657 5657 5657 5658 5659 5660 5660 5661 5662 5664 5664 5665 5668 5670 5671 5672 5674 5675 5674 5675 5676 5676 5675 5676
5677 5677 5676 5676 5675 5674 5673 5672 5672 5671 5670 5670 5670 5670 5669 5669 5668 5668 5667 5667 5666 5665 5663 5662 5661 5659 5658 5657 5656 5655 5654 5653 5653 5652 5652 5652 5652 5651 5650 5650 5649 5649 5648 5648 5649 5649 5648 5647 5647 5646 5645 5645 5646 5647 5647 5648 5648 5648 5648 5648 5648 5648 5648 5648 5649 5649 5649 5650 5651 5652 5653 5653 5655 5658 5659 5661 5663 5666 5665 5665 5666 5669 5669 5667 5667
5675 5675 5674 5673 5673 5672 5671 5670 5669 5668 5667 5666 5666 5666 5665 5665 5664 5664 5664 5663 5663 5662 5661 5660 5658 5656 5655 5653 5652 5651 5650 5649 5648 5647 5646 5646 5645 5645 5644 5643 5642 5642 5641 5641 5641 5641 5641 5640 5639 5638 5638 5637 5637 5638 5639 5639 5639 5639 5639 5640 5640 5640 5640 5640 5640 5640 5640 5640 5641 5641 5642 5644 5646 5647 5648 5650 5653 5655 5655 5655 5657 5658 5659 5659 5660
5673 5672 5671 5671 5670 5669 5668 5667 5667 5666 5665 5664 5663 5662 5661 5661 5661 5660 5659 5659 5659 5658 5658 5657 5655 5654 5652 5650 5649 5648 5646 5645 5644 5643 5641 5640 5640 5638 5637 5636 5635 5635 5634 5634 5633 5633 5633 5633 5631 5631 5630 5630 5629 5630 5630 5630 5631 5631 5631 5631 5631 5632 5632 5632 5631 5631 5631 5631 5632 5632 5633 5634 5635 5636 5637 5639 5641 5642 5643 5644 5646 5647 5648 5649 5651
5670 5669 5669 5668 5667 5666 5666 5665 5664 5663 5662 5661 5660 5659 5658 5657 5657 5656 5656 5655 5655 5654 5653 5652 5651 5650 5649 5648 5646 5645 5643 5642 5640 5639 5638 5636 5635 5633 5632 5630 5629 5629 5627 5627 5626 5625 5625 5624 5623 5622 5622 5622 5621 5621 5621 5621 5621 5622 5622 5622 5623 5623 5623 5623 5623 5622 5622 5622 5622 5623 5624 5624 5624 5625 5627 5628 5629 5630 5631 5632 5634 5635 5637 5638 5639
5669 5668 5667 5666 5665 5664 5663 5662 5661 5661 5660 5659 5658 5657 5656 5655 5654 5653 5652 5651 5651 5650 5649 5648 5647 5646 5645 5644 5642 5641 5640 5638 5636 5635 5634 5632 5630 5629 5627 5625 5624 5623 5621 5620 5619 5618 5616 5616 5615 5614 5613 5613 5613 5613 5613 5612 5612 5612 5613 5613 5614 5614 5614 5614 5614 5614 5614 5614 5614 5614 5614 5615 5615 5616 5616 5617 5618 5619 5621 5622 5623 5624 5625 5626 5627
5667 5666 5665 5664 5663 5662 5661 5660 5659 5658 5657 5656 5655 5654 5653 5652 5651 5650 5649 5647 5646 5646 5645 5644 5643 5642 5640 5639 5638 5637 5635 5634 5633 5631 5629 5628 5626 5624 5622 5620 5618 5617 5615 5614 5613 5612 5610 5608 5607 5606 5605 5604 5604 5604 5604 5603 5603 5603 5604 5604 5605 5605 5605 5605 5605 5605 5605 5605 5606 5606 5606 5606 5606 5607 5607 5608 5608 5610 5611 5612 5612 5613 5614 5615 5616
5666 5665 5664 5663 5662 5661 5659 5658 5657 5656 5655 5654 5653 5652 5651 5650 5649 5648 5646 5645 5643 5642 5640 5639 5638 5637 5636 5635 5633 5632 5631 5629 5628 5626 5625 5623 5622 5620 5618 5616 5614 5612 5610 5608 5607 5606 5604 5602 5600 5598 5597 5596 5596 5595 5595 5594 5594 5594 5595 5595 5595 5596 5596 5596 5596 5596 5596 5596 5597 5597 5597 5596 5597 5598 5598 5598 5600 5601 5602 5603 5603 5603 5604 5604 5605
5664 5663 5662 5661 5660 5659 5658 5657 5656 5655 5653 5652 5651 5650 5648 5647 5646 5645 5644 5642 5641 5639 5637 5636 5634 5632 5631 5630 5629 5627 5626 5624 5623 5621 5620 5618 5617 5615 5613 5611 5609 5607 5605 5603 5601 5599 5598 5596 5594 5592 5590 5589 5588 5587 5586 5586 5586 5585 5586 5586 5586 5586 5586 5586 5586 5586 5587 5587 5587 5587 5588 5588 5588 5588 5588 5590 5592 5592 5593 5593 5593 5593 5593 5594 5593
5662 5661 5660 5659 5658 5657 5656 5655 5654 5653 5651 5650 5649 5647 5646 5645 5643 5642 5641 5639 5638 5637 5635 5633 5631 5629 5627 5625 5624 5622 5621 5619 5618 5616 5614 5613 5611 5609 5608 5606 5604 5602 5600 5598 5596 5593 5591 5590 5588 5586 5584 5582 5581 5580 5579 5578 5577 5577 5577 5577 5577 5577 5577 5577 5577 5577 5577 5578 5578 5578 5578 5579 5579 5579 5579 5581 5583 5583 5583 5583 5583 5582 5583 5584 5583
5660 5659 5658 5657 5656 5655 5654 5653 5651 5650 5649 5648 5646 5645 5643 5642 5641 5639 5638 5636 5635 5633 5632 5630 5628 5626 5624 5622 5620 5618 5616 5614 5613 5611 5609 5607 5605 5603 5601 5600 5598 5596 5595 5592 5590 5588 5586 5584 5582 5580 5578 5576 5574 5573 5572 5571 5570 5570 5569 5569 5569 5569 5569 5569 5569 5569 5569 5569 5569 5569 5570 5570 5570 5570 5570 5572 5574 5574 5574 5573 5573 5573 5573 5573 5572
5658 5657 5656 5655 5654 5652 5651 5650 5649 5648 5646 5645 5644 5642 5641 5639 5638 5636 5635 5633 5631 5630 5628 5626 5625 5623 5621 5619 5616 5614 5612 5610 5608 5606 5604 5602 5600 5598 5596 5594 5592 5590 5589 5587 5585 5583 5581 5578 5576 5574 5572 5570 5568 5566 5565 5563 5563 5562 5562 5561 5561 5561 5560 5560 5560 5560 5560 5560 5560 5560 5561 5562 5561 5561 5562 5563 5564 5565 5564 5564 5564 5563 5563 5562 5561
5656 5654 5653 5652 5651 5650 5648 5647 5646 5645 5643 5642 5641 5639 5638 5636 5635 5633 5632 5630 5628 5626 5624 5623 5621 5619 5617 5615 5613 5611 5609 5606 5604 5602 5600 5598 5596 5594 5591 5589 5587 5585 5583 5581 5579 5578 5576 5573 5571 5569 5566 5564 5562 5560 5558 5556 5555 5554 5554 5553 5553 5553 5552 5552 5552 5551 5551 5552 5552 5552 5552 5553 5553 5553 5554 5554 5554 5555 5555 5555 5554 5554 5553 5552 5550
5653 5652 5651 5649 5648 5647 5646 5644 5643 5642 5640 5639 5637 5636 5634 5633 5631 5629 5628 5626 5624 5622 5620 5618 5617 5615 5613 5611 5609 5607 5605 5602 5600 5598 5596 5593 5591 5589 5586 5584 5582 5580 5577 5575 5573 5572 5570 5568 5566 5564 5561 5559 5556 5554 5552 5550 5548 5546 5545 5545 5545 5544 5544 5544 5544 5543 5543 5543 5543 5544 5544 5544 5544 5545 5546 5546 5545 5545 5545 5545 5545 5544 5542 5541 5539
5650 5649 5648 5647 5645 5644 5643 5641 5640 5639 5637 5635 5634 5632 5630 5629 5627 5625 5623 5622 5620 5618 5616 5614 5612 5610 5608 5606 5604 5601 5599 5597 5595 5593 5590 5588 5586 5583 5581 5579 5576 5574 5572 5570 5567 5565 5563 5561 5559 5558 5556 5554 5551 5549 5547 5544 5542 5540 5538 5537 5537 5536 5536 5535 5535 5535 5535 5535 5535 5535 5535 5536 5536 5536 5537 5536 5536 5536 5536 5535 5535 5534 5532 5530 5527
5647 5646 5645 5644 5643 5641 5640 5638 5637 5635 5634 5632 5630 5629 5627 5625 5623 5621 5619 5617 5615 5613 5611 5609 5607 5605 5602 5600 5598 5596 5593 5591 5589 5587 5584 5582 5580 5577 5575 5572 5570 5568 5565 5563 5561 5559 5557 5555 5552 5551 5549 5548 5546 5544 5541 5539 5537 5534 5532 5531 5529 5529 5528 5527 5527 5527 5527 5527 5527 5527 5527 5527 5527 5528 5528 5527 5527 5527 5527 5527 5526 5525 5523 5520 5517
5644 5643 5642 5641 5639 5638 5636 5635 5633 5632 5630 5628 5626 5625 5623 5621 5619 5617 5615 5613 5611 5608 5606 5604 5601 5599 5597 5594 5592 5590 5587 5585 5583 5580 5578 5575 5573 5570 5568 5566 5563 5560 5558 5556 5554 5552 5550 5548 5546 5543 5542 5540 5539 5537 5535 5534 5532 5530 5527 5525 5523 5522 5521 5520 5519 5519 5519 5519 5519 5519 5518 5519 5519 5519 5519 5519 5519 5519 5519 5518 5517 5516 5514 5511 5508
5641 5639 5638 5637 5635 5634 5632 5631 5629 5628 5626 5624 5622 5620 5618 5616 5614 5612 5610 5608 5606 5603 5601 5599 5596 5594 5591 5589 5586 5584 5581 5578 5576 5573 5571 5568 5565 5563 5560 5558 5556 5553 5550 5548 5545 5543 5542 5540 5538 5536 5534 5532 5531 5529 5528 5527 5525 5524 5522 5520 5518 5516 5514 5513 5512 5511 5511 5510 5510 5510 5510 5510 5511 5511 5511 5512 5512 5511 5511 5510 5509 5508 5506 5504 5501
5637 5636 5634 5633 5631 5630 5628 5627 5625 5623 5622 5620 5618 5616 5613 5611 5609 5607 5605 5602 5600 5598 5595 5593 5590 5588 5586 5583 5580 5578 5575 5572 5569 5566 5563 5561 5558 5555 5552 5550 5547 5545 5542 5540 5537 5535 5533 5531 5530 5528 5526 5524 5523 5521 5520 5519 5518 5516 5515 5513 5512 5510 5508 5506 5505 5504 5503 5503 5502 5502 5502 5502 5503 5503 5504 5504 5504 5504 5504 5503 5502 5501 5500 5499 5497
5633 5632 5630 5629 5627 5625 5624 5622 5620 5618 5616 5614 5612 5610 5608 5606 5603 5601 5599 5596 5594 5592 5589 5586 5584 5581 5579 5576 5573 5571 5568 5565 5562 5558 5555 5552 5549 5546 5544 5541 5538 5536 5534 5531 5529 5526 5524 5522 5520 5519 5518 5516 5515 5514 5512 5511 5509 5508 5507 5506 5505 5504 5502 5501 5499 5498 5497 5496 5495 5494 5494 5494 5494 5495 5495 5496 5497 5496 5496 5496 5496 5495 5495 5494 5493
5629 5627 5626 5624 5622 5621 5619 5617 5615 5613 5611 5609 5607 5604 5602 5600 5597 5595 5592 5590 5587 5585 5582 5579 5577 5574 5571 5569 5566 5563 5560 5557 5554 5550 5547 5543 5540 5537 5534 5531 5529 5526 5524 5522 5520 5518 5515 5513 5511 5509 5508 5507 5506 5505 5504 5503 5502 5500 5499 5498 5497 5496 5496 5494 5493 5492 5490 5489 5488 5487 5487 5486 5487 5487 5487 5488 5488 5488 5489 5489 5489 5489 5489 5489 5488
5624 5622 5621 5619 5618 5616 5614 5612 5610 5608 5605 5603 5601 5598 5596 5593 5591 5588 5585 5583 5580 5577 5574 5572 5569 5566 5563 5560 5557 5554 5551 5548 5544 5541 5537 5534 5530 5527 5523 5520 5518 5516 5514 5512 5510 5508 5506 5504 5502 5500 5499 5497 5497 5496 5496 5495 5494 5493 5492 5491 5490 5489 5488 5488 5487 5486 5484 5483 5482 5481 5480 5480 5480 5480 5480 5481 5481 5481 5481 5481 5481 5482 5482 5483 5483
5618 5617 5615 5614 5612 5610 5608 5606 5604 5602 5599 5597 5594 5592 5589 5587 5584 5581 5578 5576 5573 5570 5567 5564 5561 5557 5554 5551 5548 5545 5542 5538 5535 5531 5528 5524 5520 5516 5513 5510 5507 5505 5503 5502 5500 5499 5497 5495 5493 5491 5489 5488 5487 5487 5486 5486 5486 5485 5484 5483 5482 5482 5481 5480 5480 5479 5478 5477 5476 5476 5475 5474 5474 5473 5473 5474 5474 5475 5475 5475 5475 5475 5475 5476 5477
5612 5611 5609 5607 5605 5603 5601 5599 5597 5595 5592 5590 5588 5585 5583 5580 5577 5574 5572 5569 5566 5562 5559 5556 5552 5549 5545 5542 5538 5535 5532 5529 5525 5521 5517 5514 5510 5506 5502 5499 5496 5494 5492 5490 5489 5488 5487 5485 5483 5482 5480 5479 5478 5477 5477 5477 5477 5476 5476 5475 5475 5474 5474 5473 5472 5472 5472 5471 5470 5470 5469 5469 5468 5468 5467 5467 5467 5468 5469 5469 5469 5469 5470 5470 5471